This is the latest recevied weather packets stored in our database for station/object vk4zu-13. If no packets are shown the sender has not sent any weather packets the latest 1 day(s).
| Time | Temp. | Humidity | Pressure | Rain* | Wind** | Luminosity | Snow |
|---|---|---|---|---|---|---|---|
| 1778029663 | 25.56° C | 70% | 1017.6 hPa | 0 mm | - | 160 W/m² | - |
| 1778029601 | 25.56° C | 70% | 1017.6 hPa | 0 mm | - | 160 W/m² | - |
| 1778029543 | 25.56° C | 70% | 1017.6 hPa | 0 mm | - | 153 W/m² | - |
| 1778029479 | 25.56° C | 70% | 1017.7 hPa | 0 mm | - | 144 W/m² | - |
| 1778029410 | 25.56° C | 70% | 1017.7 hPa | 0 mm | - | 135 W/m² | - |
| 1778029277 | 25.56° C | 70% | 1017.7 hPa | 0 mm | - | 135 W/m² | - |
| 1778029029 | 25.56° C | 70% | 1017.7 hPa | 0 mm | - | 174 W/m² | - |
| 1778028968 | 25.56° C | 69% | 1017.8 hPa | 0 mm | - | 229 W/m² | - |
| 1778028899 | 26.11° C | 69% | 1017.8 hPa | 0 mm | - | 271 W/m² | - |
| 1778028837 | 26.11° C | 66% | 1017.8 hPa | 0 mm | - | 271 W/m² | - |
| 1778028777 | 26.67° C | 66% | 1017.9 hPa | 0 mm | - | 425 W/m² | - |
| 1778028706 | 26.67° C | 67% | 1018.1 hPa | 0 mm | - | 439 W/m² | - |
| 1778028570 | 26.11° C | 68% | 1018 hPa | 0 mm | - | 925 W/m² | - |
| 1778028507 | 26.11° C | 70% | 1018 hPa | 0 mm | - | 925 W/m² | - |
| 1778028383 | 26.11° C | 69% | 1018.1 hPa | 0 mm | - | 879 W/m² | - |
| 1778028323 | 26.11° C | 70% | 1018.2 hPa | 0 mm | - | 870 W/m² | - |
| 1778028250 | 26.11° C | 69% | 1018 hPa | 0 mm | - | 809 W/m² | - |
| 1778028181 | 26.11° C | 69% | 1018 hPa | 0 mm | - | 731 W/m² | - |
| 1778027998 | 26.11° C | 67% | 1018.2 hPa | 0 mm | - | 306 W/m² | - |
| 1778027931 | 26.11° C | 67% | 1018.1 hPa | 0 mm | - | 306 W/m² | - |
| 1778027872 | 26.11° C | 66% | 1018.2 hPa | 0 mm | - | 302 W/m² | - |
| 1778027807 | 26.11° C | 67% | 1018.1 hPa | 0 mm | - | 285 W/m² | - |
| 1778027739 | 26.11° C | 69% | 1018.1 hPa | 0 mm | - | 279 W/m² | - |
| 1778027673 | 25.56° C | 67% | 1018 hPa | 0 mm | - | 367 W/m² | - |
| 1778027601 | 26.11° C | 66% | 1018.2 hPa | 0 mm | - | 341 W/m² | - |
* Rain latest hour (hover to see other rain measurements)
** Current wind speed in m/s (hover to see current wind gust speed)